Location: Home
(42.5358°N, 72.7383°W)
Time: 06:22:47
(UTC-04:00)

COSMOS 2251 DEB - Pass Details

Date: 30 June 2022
Orbit: 769 x 1233 km, 74.1° (Epoch: 15 August)

Event Time Altitude Azimuth Distance (km) Brightness Sun altitude
Exits shadow 02:58:29 30° 225° (SW) 1,596 ? -18.4°
Maximum altitude 03:01:29 61° 294° (WNW) 1,086 ? -18.1°
Drops below altitude 10° 03:08:04 10° 14° (NNE) 2,877 ? -17.4°
Sets 03:10:54 0° 18° (NNE) 3,906 ? -17.2°
